www.pogodaiklimat.ru

Погода и климат >> Архив погоды >> Австралия >> Onslow Airport


ПОГОДА в Onslow Airport

  • Прогноз погоды в Onslow Airport
  • Монитор погоды в Onslow Airport
  • Климат города

АРХИВ ПОГОДЫ в Onslow Airport

Время (UTC), дата Ветер
(напр.,м/с)
 
Видим.   Явления Облачность Т
(С)
Тd
(С)
f
(%)
Тe
(С)
Тes
(С)
Комфортность P
(гПа)
Po
(гПа)
Тmin
(С)
Tmax
(С)
R
(мм)
R24
(мм)
S
(см)
22 11.01 Ю 4 н/о н/о +24.8 +15.1 55 +28 +28 жарко 1003.5 1002.3
00 12.01 Ю 6 н/о н/о +29.1 +12.9 37 +30 +30 жарко 1003.8 1002.6
01 12.01 Ю 6 н/о н/о +33.5 +8.9 22 +32 +32 жарко 1003.6 1002.4 +24.4
03 12.01 ЮВ 4 н/о н/о +36.7 +13.5 25 +37 +37 очень
жарко
1002.6 1001.4
04 12.01 СЗ 6 н/о н/о +38.0 +13.9 24 +38 +38 очень
жарко
1002.1 1000.9
06 12.01 СЗ 8 н/о н/о +35.7 +14.9 29 +37 +37 душно 1001.1 999.9
07 12.01 З 10 н/о н/о +35.2 +16.0 32 +37 +37 очень
душно
999.8 998.6
09 12.01 СЗ 7 н/о н/о +33.5 +16.4 36 +36 +36 очень
душно
999.9 998.7
10 12.01 СЗ 8 н/о 5/0
[]
+32.1 +18.3 44 +37 +37 очень
душно
999.6 998.4
12 12.01 З 7 н/о н/о +29.0 +22.2 67 +38 +38 очень
душно
1001.8 1000.6
13 12.01 З 6 н/о 10/0
[]
+28.2 +22.4 71 +37 +37 очень
душно
1002.6 1001.4 +38.4
15 12.01 З 5 н/о н/о +28.1 +23.2 75 +38 +38 очень
душно
1001.6 1000.4
16 12.01 З 5 н/о 5/0
[]
+27.6 +21.9 71 +36 +36 очень
душно
1000.9 999.7
18 12.01 З 3 н/о н/о +26.6 +20.0 67 +33 +33 очень
душно
1000.5 999.3
19 12.01 ЮЗ 2 н/о н/о +26.4 +20.0 68 +32 +32 очень
душно
1000.3 999.1
21 12.01 ЮВ 4 н/о н/о +26.9 +20.5 68 +33 +33 очень
душно
1001.0 999.8
22 12.01 В 4 н/о н/о +27.4 +21.9 72 +35 +35 очень
душно
1001.5 1000.3
00 13.01 ЮВ 11 н/о н/о +31.3 +19.6 50 +37 +37 очень
душно
1002.6 1001.4
01 13.01 ЮВ 12 н/о 6/6 600 м
[]
+33.2 +20.0 46 +39 +39 очень
душно
1002.5 1001.3 +26.0
03 13.01 ЮВ 9 н/о н/о +36.3 +19.7 38 +42 +42 опасность
перегрева
1001.3 1000.1
04 13.01 ЮВ 7 н/о 1/0
[]
+37.4 +19.3 35 +42 +49 опасность
перегрева
1000.5 999.3
06 13.01 СВ 4 н/о н/о +36.7 +19.6 37 +42 +42 опасность
перегрева
998.8 997.6
07 13.01 СЗ 4 н/о туман 10/10 600 м
[]
+30.7 +23.9 67 +42 +42 опасность
перегрева
999.1 997.9
09 13.01 СЗ 6 н/о н/о +29.1 +26.1 84 +44 +44 опасность
перегрева
999.3 998.1
10 13.01 СЗ 7 н/о {туман} 9/0 2000 м
[]
+28.8 +25.6 83 +43 +43 опасность
перегрева
1000.0 998.8
12 13.01 З 9 н/о н/о +27.6 +24.2 82 +39 +39 очень
душно
1001.6 1000.4
13 13.01 З 8 н/о {туман} 10/10 1000 м
[]
+27.7 +23.9 80 +38 +38 очень
душно
1003.1 1001.9 +40.2
15 13.01 З 8 н/о н/о +26.2 +23.3 84 +35 +35 очень
душно
1003.5 1002.3
16 13.01 З 8 н/о в посл. час дождь {туман} 10/10 1500 м
[]
+26.5 +24.0 86 +37 +37 очень
душно
1002.9 1001.7
18 13.01 З 6 н/о н/о +27.4 +23.0 77 +37 +37 очень
душно
1001.9 1000.7
19 13.01 СЗ 6 н/о {туман} 10/0
[]
+27.2 +23.7 81 +37 +37 очень
душно
1002.4 1001.2
21 13.01 С 6 н/о н/о +27.2 +23.7 81 +37 +37 очень
душно
1003.3 1002.1
22 13.01 С 8 н/о н/о +27.3 +23.7 81 +37 +37 очень
душно
1004.1 1002.9
00 14.01 С 9 н/о н/о +29.4 +24.3 74 +41 +41 опасность
перегрева
1005.9 1004.7
01 14.01 С 9 н/о 1/1 300 м
[]
+30.4 +24.5 71 +43 +44 опасность
перегрева
1006.5 1005.3 +26.1
03 14.01 С 8 н/о н/о +31.5 +24.4 66 +44 +44 опасность
перегрева
1006.7 1005.5
04 14.01 С 9 н/о 1/1 600 м
[]
+32.1 +24.2 63 +44 +47 опасность
перегрева
1006.6 1005.4
06 14.01 С 8 н/о н/о +31.8 +23.3 61 +43 +43 опасность
перегрева
1005.9 1004.7
07 14.01 С 7 н/о н/о +32.0 +23.0 59 +42 +42 опасность
перегрева
1005.4 1004.2
09 14.01 С 7 н/о н/о +31.4 +24.0 65 +43 +43 опасность
перегрева
1005.6 1004.4
10 14.01 С 6 н/о 10/10 300 м
[]
+30.0 +24.4 72 +42 +42 опасность
перегрева
1006.2 1005.0
12 14.01 СЗ 4 н/о н/о +28.3 +25.1 83 +41 +41 опасность
перегрева
1007.6 1006.4
13 14.01 СЗ 4 н/о 10/10 300 м
[]
+28.2 +25.0 83 +41 +41 опасность
перегрева
1008.5 1007.3 +33.6
15 14.01 СЗ 3 н/о н/о +27.7 +25.9 90 +41 +41 опасность
перегрева
1008.6 1007.4
16 14.01 С 2 н/о {туман} 5/5 300 м
[]
+27.8 +26.4 92 +42 +42 опасность
перегрева
1008.1 1006.9
18 14.01 С 3 н/о н/о +27.8 +26.2 91 +42 +42 опасность
перегрева
1007.2 1006.0
19 14.01 СВ 5 н/о {туман} 1/1 300 м
[]
+27.9 +25.5 87 +41 +41 опасность
перегрева
1007.2 1006.0
21 14.01 СВ 3 н/о н/о +27.6 +25.4 88 +40 +40 очень
душно
1007.1 1005.9
22 14.01 В 3 н/о н/о +27.4 +25.4 89 +40 +40 очень
душно
1007.5 1006.3
00 15.01 В 4 н/о н/о +29.5 +25.9 81 +44 +44 опасность
перегрева
1008.6 1007.4
01 15.01 СВ 4 н/о 4/4 300 м
[]
+31.2 +24.8 69 +44 +49 опасность
перегрева
1008.7 1007.5 +27.4
03 15.01 С 5 н/о н/о +33.2 +24.4 60 +46 +46 опасность
перегрева
1007.9 1006.7
04 15.01 С 5 н/о н/о +34.2 +23.9 55 +46 +46 опасность
перегрева
1007.5 1006.3
06 15.01 СЗ 6 н/о н/о +34.5 +23.5 53 +45 +45 опасность
перегрева
1006.4 1005.2
07 15.01 СЗ 6 н/о н/о +34.6 +22.6 50 +44 +44 опасность
перегрева
1005.9 1004.7
09 15.01 СЗ 7 н/о н/о +32.8 +24.6 62 +46 +46 опасность
перегрева
1004.9 1003.7
10 15.01 СЗ 7 н/о н/о +30.9 +25.0 71 +44 +44 опасность
перегрева
1004.9 1003.7
12 15.01 СЗ 4 н/о н/о +29.1 +25.1 79 +42 +42 опасность
перегрева
1006.3 1005.1
13 15.01 З 3 н/о н/о +28.8 +25.4 82 +42 +42 опасность
перегрева
1007.0 1005.8 +35.9
15 15.01 З 4 н/о н/о +28.2 +25.2 84 +41 +41 опасность
перегрева
1007.4 1006.2
16 15.01 ЮЗ 3 н/о н/о +27.8 +25.2 86 +40 +40 очень
душно
1007.3 1006.1
18 15.01 З 3 н/о н/о +27.2 +24.5 85 +38 +38 очень
душно
1006.5 1005.3
19 15.01 ЮЗ 3 н/о н/о +27.2 +24.3 84 +38 +38 очень
душно
1006.3 1005.1
21 15.01 Ю 3 н/о н/о +27.0 +23.5 81 +37 +37 очень
душно
1006.4 1005.2
22 15.01 ЮВ 3 н/о н/о +26.9 +23.6 82 +37 +37 очень
душно
1007.0 1005.8
00 16.01 В 5 н/о н/о +31.4 +24.3 66 +44 +44 опасность
перегрева
1007.6 1006.4
01 16.01 В 5 н/о 4/4 600 м
[]
+32.1 +22.2 56 +41 +45 опасность
перегрева
1007.5 1006.3 +26.9
03 16.01 С 7 н/о н/о +34.3 +21.7 48 +42 +42 опасность
перегрева
1007.1 1005.9
04 16.01 С 6 н/о н/о +34.8 +21.8 47 +43 +43 опасность
перегрева
1006.4 1005.2
06 16.01 С 7 н/о н/о +34.9 +22.6 49 +44 +44 опасность
перегрева
1005.4 1004.2
07 16.01 СЗ 7 н/о н/о +33.7 +23.4 55 +44 +44 опасность
перегрева
1005.1 1003.9
09 16.01 СЗ 8 н/о н/о +32.6 +24.4 62 +45 +45 опасность
перегрева
1004.4 1003.2
10 16.01 СЗ 8 н/о н/о +31.5 +24.4 66 +44 +44 опасность
перегрева
1004.5 1003.3
12 16.01 З 5 н/о н/о +29.6 +24.7 75 +42 +42 опасность
перегрева
1006.4 1005.2
13 16.01 СЗ 2 н/о 10/0
[]
+29.5 +24.4 74 +41 +41 опасность
перегрева
1007.4 1006.2 +36.8
15 16.01 З 3 н/о н/о +29.3 +24.4 75 +41 +41 опасность
перегрева
1007.8 1006.6
16 16.01 З 3 н/о 1/0
[]
+29.0 +24.6 77 +41 +41 опасность
перегрева
1007.4 1006.2
18 16.01 З 3 н/о н/о +29.1 +23.5 72 +40 +40 очень
душно
1006.8 1005.6
19 16.01 ЮЗ 3 н/о 10/0
[]
+29.3 +23.3 70 +40 +40 очень
душно
1006.4 1005.2
21 16.01 Ю 4 н/о н/о +29.1 +21.8 65 +37 +37 очень
душно
1006.0 1004.8
22 16.01 Ю 4 н/о 10/0
[]
+29.2 +21.7 64 +37 +37 очень
душно
1006.7 1005.5
00 17.01 ЮВ 5 н/о н/о +29.1 +22.1 66 +38 +38 очень
душно
1007.6 1006.4
01 17.01 ЮВ 6 н/о 9/9 1500 м
[]
+30.7 +21.8 59 +39 +40 очень
душно
1007.8 1006.6 +28.8
03 17.01 В 4 н/о н/о +33.6 +21.1 48 +41 +41 опасность
перегрева
1007.1 1005.9
04 17.01 В 3 н/о 5/0
[]
+34.3 +20.7 45 +41 +55 опасность
перегрева
1006.3 1005.1
06 17.01 С 6 н/о н/о +31.8 +23.6 62 +43 +43 опасность
перегрева
1005.6 1004.4
07 17.01 СЗ 4 н/о 10/10 1000 м
[]
+29.8 +24.2 72 +42 +42 опасность
перегрева
1005.3 1004.1
09 17.01 З 4 н/о н/о +30.1 +23.8 69 +41 +41 опасность
перегрева
1004.2 1003.0
10 17.01 СЗ 5 н/о 10/0
[]
+29.7 +23.6 70 +41 +41 опасность
перегрева
1004.8 1003.6
12 17.01 З 5 н/о н/о +28.9 +24.5 77 +41 +41 опасность
перегрева
1005.7 1004.5
13 17.01 З 4 н/о 6/0
[]
+28.8 +24.6 78 +41 +41 опасность
перегрева
1006.6 1005.4 +35.4
15 17.01 З 4 н/о н/о +28.9 +23.6 73 +39 +39 очень
душно
1007.0 1005.8
16 17.01 ЮЗ 6 н/о 10/0
[]
+28.4 +22.9 72 +38 +38 очень
душно
1006.9 1005.7
18 17.01 ЮЗ 3 н/о н/о +27.3 +20.9 68 +34 +34 очень
душно
1006.2 1005.0
19 17.01 ЮЗ 4 н/о 10/0 2000 м
[]
+27.4 +20.7 67 +34 +34 очень
душно
1006.1 1004.9
21 17.01 ЮЗ 4 н/о н/о +27.7 +21.0 67 +35 +35 очень
душно
1006.1 1004.9
22 17.01 ЮЗ 5 н/о 10/0 2000 м
[]
+26.7 +20.8 70 +33 +33 очень
душно
1006.6 1005.4
00 18.01 З 3 н/о н/о +26.3 +23.4 84 +36 +36 очень
душно
1006.9 1005.7
01 18.01 З 3 н/о {туман} 9/0
[]
+28.2 +22.7 72 +37 +43 очень
душно
1006.9 1005.7 +24.2
03 18.01 СЗ 7 н/о н/о +31.3 +22.9 61 +41 +41 опасность
перегрева
1006.5 1005.3
04 18.01 СЗ 7 н/о 5/0
[]
+31.8 +23.6 62 +43 +48 опасность
перегрева
1006.0 1004.8
06 18.01 З 9 н/о н/о +32.7 +21.2 51 +40 +40 очень
душно
1005.0 1003.8
07 18.01 СЗ 9 н/о н/о +31.7 +24.0 64 +44 +44 опасность
перегрева
1004.6 1003.4
09 18.01 З 9 н/о н/о +31.2 +24.8 69 +44 +44 опасность
перегрева
1003.9 1002.7
10 18.01 З 9 н/о 3/0
[]
+30.4 +24.1 69 +42 +42 опасность
перегрева
1004.6 1003.4
12 18.01 З 6 н/о н/о +30.0 +24.2 71 +42 +42 опасность
перегрева
1006.4 1005.2
13 18.01 З 5 н/о 10/0
[]
+30.2 +23.9 69 +42 +42 опасность
перегрева
1006.6 1005.4 +33.5
15 18.01 З 5 н/о н/о +30.0 +22.4 64 +39 +39 очень
душно
1007.1 1005.9
16 18.01 З 4 н/о 9/0
[]
+29.4 +21.9 64 +38 +38 очень
душно
1006.8 1005.6
18 18.01 З 3 н/о н/о +28.6 +22.6 70 +38 +38 очень
душно
1006.6 1005.4
19 18.01 З 3 н/о 6/0
[]
+28.1 +22.6 72 +37 +37 очень
душно
1006.0 1004.8
21 18.01 З 3 н/о н/о +27.6 +22.5 74 +36 +36 очень
душно
1005.9 1004.7
22 18.01 З 2 н/о 10/0
[]
+27.3 +22.5 75 +36 +36 очень
душно
1006.7 1005.5

 

Местоположение метеостанции Onslow Airport (Западная Австралия, Австралия): широта -21.67 долгота 115.12 высота над уровнем моря 4 м.

В архиве по умолчанию представлена погода в Onslow Airport за последнюю неделю. Архивные данные за месяц целиком и за предыдущие месяцы, начиная с января 2011 года, Вы можете получить, выбрав интересующий диапазон дат из раскрывающегося списка и нажав кнопку "Ввод!".

Внимание! Время в таблицах - всемирное. Для получения местного времени необходимо прибавить поправку, которая в Onslow Airport равна 8 ч.

Смотрите также архив погоды в соседних городах и на ближайших метеорологических станциях:

Погода в Thevenard Island (Западная Австралия, Австралия) (27 км)
Погода в Barrow Island Airport (Западная Австралия, Австралия) (93 км)
Погода в Mardie (Западная Австралия, Австралия) (104 км)
Погода в Varanus Island (Западная Австралия, Австралия) (123 км)
Погода в Learmonth Airport (Западная Австралия, Австралия) (124 км)
Погода в Karratha Aero (Западная Австралия, Австралия) (201 км)
Погода в Roebourne Aero (Западная Австралия, Австралия) (234 км)
Погода в Paraburdoo Aero (Западная Австралия, Австралия) (318 км)
Погода в Carnarvon Airport (Западная Австралия, Австралия) (387 км)
Погода в Port Hedland Apardoo (Западная Австралия, Австралия) (392 км)

Пояснения к столбцам:

Ветер - указаны скорость ветра в м/с - средняя за 10 мин, порывы в срок и между сроками (в фигурных скобках) и направление, откуда дует ветер: С - северный, СВ - северо-восточный, В - восточный, ЮВ - юго-восточный, Ю - южный, ЮЗ - юго-западный, З - западный, СЗ - северо-западный.
Видимость - горизонтальная дальность видимости в метрах или километрах. При видимости от 1 до 10 км при отсутствии осадков обычно наблюдается дымка, при ухудшении видимости до 1 км и менее - туман. В сухую погоду видимость может ухудшаться дымом, пылью или мглою.
Явления - указаны атмосферные явления, наблюдавшиеся в срок или в последний час перед сроком; фигурными скобками обозначены явления, наблюдавшиеся между сроками (за 1-3 часа до срока); квадратными скобками обозначены град или гололедные отложения с указанием их диаметра в мм.
Облачность - указаны через наклонную черту общая и нижняя облачность в баллах и высота нижней границы облаков в метрах; квадратными скобками обозначены формы облаков: Ci - перистые, Cs - перисто-слоистые, Cc - перисто-кучевые, Ac - высококучевые, As - высокослоистые, Sc - слоисто-кучевые, Ns - слоисто-дождевые, Cu - кучевые, Cb - кучево-дождевые. Подробнее классификацию облаков см. в Атласе облаков (PDF).
T - Температура воздуха - температура, измеренная на высоте 2 м над землей.
Td - Температура точки росы - температура, при понижении до которой содержащийся в воздухе водяной пар достигнет насыщения.
f - Относительная влажность воздуха - влажноcть воздуха, измеренная на высоте 2 м над землей.
Te - Эффективная температура - температура, которую ощущает одетый по сезону человек в тени. Характеристика душности погоды. При расчете учитывается влияние влажности воздуха и скорости ветра на теплоощущения человека.
Tes - Эффективная температура на солнце - температура, которую ощущает человек, с поправкой на солнечный нагрев. Характеристика знойности погоды. Зависит от высоты солнца над горизонтом, облачности и скорости ветра. Ночью, в пасмурную погоду, а также при ветре 12 м/с и более поправка равна нулю.
P - Атмосферное давление - приведенное к уровню моря атмосферное давление.
Po - Атмосферное давление - измеренное на уровне метеостанции атмосферное давление.
Tmin - Минимальная температура - минимум температуры воздуха на высоте 2 м над землей.
Tmax - Максимальная температура - максимум температуры воздуха на высоте 2 м над землей.
R - Количество осадков - Количество выпавших осадков за период времени, мм. При наведении курсора мыши на число - период времени, за который выпало указанное количество осадков.
R24 - Количество осадков - Количество выпавших осадков за 24 часа, мм.
S - Снежный покров - Высота снежного покрова, см. При наведении курсора мыши на число - состояние снежного покрова и степень покрытия местности в баллах.